TimeCST,TemperatureF,Dew PointF,Humidity,Sea Level PressureIn,VisibilityMPH,Wind Direction,Wind SpeedMPH,Gust SpeedMPH,PrecipitationIn,Events,Conditions,WindDirDegrees,DateUTC
12:54 AM,34.0,30.9,89,30.19,10.0,West,3.5,-,N/A,,Clear,270,2013-11-03 05:54:00
1:54 AM,35.1,30.9,85,30.20,10.0,Calm,Calm,-,N/A,,Clear,0,2013-11-03 06:54:00
1:54 AM,36.0,30.9,82,30.22,10.0,NW,3.5,-,N/A,,Clear,320,2013-11-03 07:54:00
2:54 AM,35.1,30.0,82,30.24,10.0,Calm,Calm,-,N/A,,Clear,0,2013-11-03 08:54:00
3:54 AM,33.1,28.0,82,30.25,10.0,WNW,3.5,-,N/A,,Clear,300,2013-11-03 09:54:00
4:54 AM,30.0,26.1,85,30.26,10.0,Calm,Calm,-,N/A,,Clear,0,2013-11-03 10:54:00
5:54 AM,30.0,26.1,85,30.28,10.0,Calm,Calm,-,N/A,,Clear,0,2013-11-03 11:54:00
6:54 AM,30.0,27.0,88,30.30,4.0,Calm,Calm,-,N/A,,Clear,0,2013-11-03 12:54:00
7:54 AM,37.0,33.1,86,30.33,10.0,Calm,Calm,-,N/A,,Clear,0,2013-11-03 13:54:00
8:54 AM,42.1,36.0,79,30.32,10.0,East,5.8,-,N/A,,Clear,100,2013-11-03 14:54:00
9:54 AM,46.9,37.0,68,30.32,10.0,SE,6.9,-,N/A,,Clear,130,2013-11-03 15:54:00
10:54 AM,50.0,35.1,57,30.32,10.0,SSE,8.1,-,N/A,,Clear,150,2013-11-03 16:54:00
11:54 AM,52.0,34.0,50,30.30,10.0,SE,4.6,-,N/A,,Clear,130,2013-11-03 17:54:00
12:54 PM,54.0,33.1,45,30.27,10.0,SSE,8.1,-,N/A,,Clear,160,2013-11-03 18:54:00
1:54 PM,54.0,30.9,41,30.25,10.0,South,10.4,-,N/A,,Clear,180,2013-11-03 19:54:00
2:54 PM,54.0,30.9,41,30.25,10.0,SSE,8.1,-,N/A,,Clear,160,2013-11-03 20:54:00
3:54 PM,53.1,30.9,43,30.23,10.0,SSE,11.5,-,N/A,,Clear,160,2013-11-03 21:54:00
4:54 PM,48.0,33.1,56,30.23,10.0,SE,9.2,-,N/A,,Clear,130,2013-11-03 22:54:00
5:54 PM,46.0,33.1,61,30.24,10.0,SE,9.2,-,N/A,,Clear,140,2013-11-03 23:54:00
6:54 PM,44.1,33.1,65,30.25,10.0,SE,9.2,-,N/A,,Clear,130,2013-11-04 00:54:00
7:54 PM,45.0,34.0,65,30.24,10.0,SE,13.8,-,N/A,,Clear,140,2013-11-04 01:54:00
8:54 PM,45.0,34.0,65,30.24,10.0,SSE,11.5,-,N/A,,Clear,150,2013-11-04 02:54:00
9:54 PM,44.1,34.0,68,30.24,10.0,SE,9.2,-,N/A,,Clear,140,2013-11-04 03:54:00
10:54 PM,43.0,34.0,71,30.23,10.0,SE,6.9,-,N/A,,Clear,130,2013-11-04 04:54:00